Find KUIPER-00468

NORAD ID: 68873 Int'l Des: 2026-095K Owner: kuiper Country: USA Constellation: kuiper operational
LEOCIRCULAR

Live Position

Loading 3D Globe...

About KUIPER-00468

Description loading...

Upcoming Passes

Passes for default location (London). Set your location on the main map for personalized predictions.

Altitude History

Loading altitude history...

Two-Line Element Set

1 68873U 26095K 26120.66670139 -.00007481 00000-0 -19029-3 0 9999
2 68873 51.8814 112.1527 0004928 108.7040 69.4746 15.37422389 1307
Epoch: Apr 30, 2026 • Age: 32 hours

Current Status

Altitude 474.5 km
Velocity 7.63 km/s
Sub-Earth Point -50.67°S, 178.93°E
Type internet

Most Searched